Time,TemperatureF,DewpointF,PressureIn,WindDirection,WindDirectionDegrees,WindSpeedMPH,WindSpeedGustMPH,Humidity,HourlyPrecipIn,Conditions,Clouds,dailyrainin,SoftwareType,DateUTC
2013-07-03 00:12:00,64.0,60.0,-100.00,NE,47,4.0,5.0,87,-99.99,,,-99.99,,2013-07-03 07:12:00,
2013-07-03 00:23:00,63.0,59.0,-100.00,NE,45,2.0,3.0,88,-99.99,,,-99.99,,2013-07-03 07:23:00,
2013-07-03 01:35:00,62.0,59.0,-100.00,NE,40,2.0,4.0,89,-99.99,,,-99.99,,2013-07-03 08:35:00,
2013-07-03 02:12:00,60.0,57.0,-100.00,NE,50,4.0,6.0,90,-99.99,,,-99.99,,2013-07-03 09:12:00,
2013-07-03 02:23:00,61.0,58.0,-100.00,NE,41,4.0,6.0,91,-99.99,,,-99.99,,2013-07-03 09:23:00,
2013-07-03 02:34:00,61.0,58.0,-100.00,NE,55,3.0,5.0,91,-99.99,,,-99.99,,2013-07-03 09:34:00,
2013-07-03 03:12:00,62.0,59.0,-100.00,NE,38,4.0,5.0,90,-99.99,,,-99.99,,2013-07-03 10:12:00,
2013-07-03 03:23:00,62.0,59.0,-100.00,NE,38,4.0,5.0,90,-99.99,,,-99.99,,2013-07-03 10:23:00,
2013-07-03 03:34:00,62.0,59.0,-100.00,NE,38,4.0,5.0,90,-99.99,,,-99.99,,2013-07-03 10:34:00,
2013-07-03 04:22:00,63.0,62.0,-100.00,NNE,26,3.0,5.0,95,-99.99,,,-99.99,,2013-07-03 11:22:00,
2013-07-03 04:42:00,63.0,62.0,-100.00,NE,53,3.0,4.0,96,-99.99,,,-99.99,,2013-07-03 11:42:00,
2013-07-03 04:53:00,63.0,62.0,-100.00,NE,39,3.0,6.0,96,-99.99,,,-99.99,,2013-07-03 11:53:00,
2013-07-03 05:22:00,63.0,62.0,-100.00,NE,49,3.0,5.0,97,-99.99,,,-99.99,,2013-07-03 12:22:00,
2013-07-03 06:13:00,63.0,62.0,-100.00,NE,47,4.0,7.0,97,-99.99,,,-99.99,,2013-07-03 13:13:00,
2013-07-03 06:23:00,63.0,62.0,-100.00,ENE,58,4.0,6.0,97,-99.99,,,-99.99,,2013-07-03 13:23:00,
2013-07-03 06:34:00,63.0,62.0,-100.00,NE,53,3.0,5.0,97,-99.99,,,-99.99,,2013-07-03 13:34:00,
2013-07-03 06:53:00,63.0,62.0,-100.00,NNE,30,2.0,3.0,97,-99.99,,,-99.99,,2013-07-03 13:53:00,
2013-07-03 07:03:00,63.0,62.0,-100.00,NNE,20,2.0,3.0,97,-99.99,,,-99.99,,2013-07-03 14:03:00,
2013-07-03 07:12:00,63.0,62.0,-100.00,ENE,68,3.0,4.0,97,-99.99,,,-99.99,,2013-07-03 14:12:00,
2013-07-03 07:23:00,64.0,63.0,-100.00,SE,141,2.0,4.0,97,-99.99,,,-99.99,,2013-07-03 14:23:00,
2013-07-03 07:34:00,64.0,63.0,-100.00,ESE,110,2.0,3.0,96,-99.99,,,-99.99,,2013-07-03 14:34:00,
2013-07-03 07:44:00,65.0,64.0,-100.00,South,181,2.0,4.0,95,-99.99,,,-99.99,,2013-07-03 14:44:00,
2013-07-03 08:12:00,66.0,64.0,-100.00,SSW,203,2.0,5.0,94,-99.99,,,-99.99,,2013-07-03 15:12:00,
2013-07-03 08:45:00,66.0,64.0,-100.00,SW,232,4.0,7.0,93,-99.99,,,-99.99,,2013-07-03 15:45:00,
2013-07-03 09:03:00,67.0,65.0,-100.00,SW,233,2.0,5.0,92,-99.99,,,-99.99,,2013-07-03 16:03:00,
2013-07-03 09:12:00,67.0,64.0,-100.00,SW,220,3.0,7.0,91,-99.99,,,-99.99,,2013-07-03 16:12:00,
2013-07-03 09:44:00,70.0,66.0,-100.00,SSW,212,3.0,6.0,86,-99.99,,,-99.99,,2013-07-03 16:44:00,
2013-07-03 09:54:00,70.0,66.0,-100.00,SSW,212,3.0,6.0,86,-99.99,,,-99.99,,2013-07-03 16:54:00,
2013-07-03 10:12:00,73.0,65.0,-100.00,SSW,209,4.0,7.0,77,-99.99,,,-99.99,,2013-07-03 17:12:00,
2013-07-03 10:45:00,75.0,64.0,-100.00,SW,220,6.0,11.0,69,-99.99,,,-99.99,,2013-07-03 17:45:00,
2013-07-03 10:52:00,75.0,64.0,-100.00,SW,220,6.0,10.0,69,-99.99,,,-99.99,,2013-07-03 17:52:00,
2013-07-03 11:23:00,75.0,64.0,-100.00,SW,215,5.0,8.0,69,-99.99,,,-99.99,,2013-07-03 18:23:00,
2013-07-03 11:54:00,76.0,63.0,-100.00,SSW,212,5.0,8.0,65,-99.99,,,-99.99,,2013-07-03 18:54:00,
2013-07-03 12:02:00,76.0,64.0,-100.00,SW,218,6.0,9.0,66,-99.99,,,-99.99,,2013-07-03 19:02:00,
2013-07-03 12:13:00,77.0,65.0,-100.00,SW,218,4.0,9.0,66,-99.99,,,-99.99,,2013-07-03 19:13:00,
2013-07-03 12:24:00,79.0,65.0,-100.00,SW,216,5.0,9.0,62,-99.99,,,-99.99,,2013-07-03 19:24:00,
2013-07-03 12:34:00,79.0,65.0,-100.00,SW,216,5.0,9.0,62,-99.99,,,-99.99,,2013-07-03 19:34:00,
2013-07-03 12:54:00,83.0,64.0,-100.00,SW,224,7.0,13.0,53,-99.99,,,-99.99,,2013-07-03 19:54:00,
2013-07-03 13:01:00,83.0,64.0,-100.00,SW,224,7.0,13.0,53,-99.99,,,-99.99,,2013-07-03 20:01:00,
2013-07-03 13:12:00,82.0,64.0,-100.00,SW,225,10.0,15.0,55,-99.99,,,-99.99,,2013-07-03 20:12:00,
2013-07-03 13:53:00,76.0,64.0,-100.00,SW,226,7.0,11.0,67,-99.99,,,-99.99,,2013-07-03 20:53:00,
2013-07-03 15:12:00,74.0,64.0,-100.00,SW,222,8.0,13.0,70,-99.99,,,-99.99,,2013-07-03 22:12:00,
2013-07-03 15:23:00,73.0,63.0,-100.00,SW,234,8.0,12.0,71,-99.99,,,-99.99,,2013-07-03 22:23:00,
2013-07-03 15:44:00,73.0,63.0,-100.00,SW,221,7.0,11.0,72,-99.99,,,-99.99,,2013-07-03 22:44:00,
2013-07-03 15:53:00,73.0,63.0,-100.00,SW,221,7.0,11.0,72,-99.99,,,-99.99,,2013-07-03 22:53:00,
2013-07-03 16:02:00,72.0,64.0,-100.00,SW,228,6.0,11.0,75,-99.99,,,-99.99,,2013-07-03 23:02:00,
2013-07-03 16:22:00,73.0,63.0,-100.00,SW,214,6.0,9.0,72,-99.99,,,-99.99,,2013-07-03 23:22:00,
2013-07-03 17:11:00,74.0,63.0,-100.00,SW,230,5.0,9.0,69,-99.99,,,-99.99,,2013-07-04 00:11:00,
2013-07-03 17:33:00,74.0,62.0,-100.00,SSW,203,5.0,8.0,67,-99.99,,,-99.99,,2013-07-04 00:33:00,
2013-07-03 17:43:00,75.0,63.0,-100.00,SW,228,6.0,9.0,67,-99.99,,,-99.99,,2013-07-04 00:43:00,
2013-07-03 18:12:00,74.0,63.0,-100.00,SW,218,6.0,9.0,68,-99.99,,,-99.99,,2013-07-04 01:12:00,
2013-07-03 18:23:00,74.0,62.0,-100.00,SW,233,7.0,11.0,67,-99.99,,,-99.99,,2013-07-04 01:23:00,
2013-07-03 18:43:00,73.0,63.0,-100.00,WSW,237,7.0,10.0,71,-99.99,,,-99.99,,2013-07-04 01:43:00,
2013-07-03 18:52:00,72.0,64.0,-100.00,SW,230,7.0,11.0,76,-99.99,,,-99.99,,2013-07-04 01:52:00,
2013-07-03 19:12:00,71.0,64.0,-100.00,SW,221,6.0,9.0,79,-99.99,,,-99.99,,2013-07-04 02:12:00,
2013-07-03 19:22:00,70.0,64.0,-100.00,SW,229,6.0,9.0,81,-99.99,,,-99.99,,2013-07-04 02:22:00,
2013-07-03 19:35:00,68.0,64.0,-100.00,SW,233,4.0,7.0,87,-99.99,,,-99.99,,2013-07-04 02:35:00,
2013-07-03 19:44:00,67.0,63.0,-100.00,SW,234,3.0,5.0,87,-99.99,,,-99.99,,2013-07-04 02:44:00,
2013-07-03 20:12:00,67.0,63.0,-100.00,WNW,293,1.0,1.0,88,-99.99,,,-99.99,,2013-07-04 03:12:00,
2013-07-03 20:24:00,67.0,63.0,-100.00,SW,228,0.0,1.0,88,-99.99,,,-99.99,,2013-07-04 03:24:00,
2013-07-03 20:53:00,67.0,63.0,-100.00,WSW,239,2.0,3.0,87,-99.99,,,-99.99,,2013-07-04 03:53:00,
2013-07-03 21:01:00,67.0,63.0,-100.00,SSW,200,2.0,3.0,88,-99.99,,,-99.99,,2013-07-04 04:01:00,
2013-07-03 21:11:00,66.0,62.0,-100.00,SSW,197,2.0,4.0,88,-99.99,,,-99.99,,2013-07-04 04:11:00,
2013-07-03 21:22:00,66.0,62.0,-100.00,SSW,193,1.0,3.0,88,-99.99,,,-99.99,,2013-07-04 04:22:00,
2013-07-03 21:33:00,66.0,62.0,-100.00,SSW,193,1.0,3.0,88,-99.99,,,-99.99,,2013-07-04 04:33:00,
2013-07-03 21:43:00,66.0,63.0,-100.00,SSW,202,1.0,2.0,89,-99.99,,,-99.99,,2013-07-04 04:43:00,
2013-07-03 22:12:00,65.0,62.0,-100.00,South,173,1.0,3.0,91,-99.99,,,-99.99,,2013-07-04 05:12:00,
2013-07-03 22:22:00,65.0,62.0,-100.00,South,182,2.0,3.0,91,-99.99,,,-99.99,,2013-07-04 05:22:00,
2013-07-03 22:42:00,65.0,63.0,-100.00,SSW,210,2.0,4.0,92,-99.99,,,-99.99,,2013-07-04 05:42:00,
2013-07-03 22:52:00,65.0,63.0,-100.00,SSW,210,2.0,4.0,92,-99.99,,,-99.99,,2013-07-04 05:52:00,
2013-07-03 23:11:00,65.0,63.0,-100.00,South,189,3.0,5.0,93,-99.99,,,-99.99,,2013-07-04 06:11:00,
2013-07-03 23:22:00,65.0,63.0,-100.00,South,178,2.0,4.0,93,-99.99,,,-99.99,,2013-07-04 06:22:00,
2013-07-03 23:33:00,65.0,63.0,-100.00,SE,139,2.0,5.0,93,-99.99,,,-99.99,,2013-07-04 06:33:00,
2013-07-03 23:43:00,65.0,63.0,-100.00,South,174,2.0,3.0,93,-99.99,,,-99.99,,2013-07-04 06:43:00,
2013-07-03 23:52:00,65.0,63.0,-100.00,South,183,2.0,5.0,93,-99.99,,,-99.99,,2013-07-04 06:52:00,